Jogging de Polleur 07/06/2019 - 9,5 km
Mise à jour le : 07/06/2019 à 21:16
Correction possible jusqu'au 21/06/2019 en cliquant ici
Place Nom Prénom Dossard Temps Vitesse Allure Place. Cat. Catégorie
1 LEFEBVRE LUDWIG 903 31:55 17,85 3:21 1 Séniors
2 WIERTZ XAVIER 4 33:03 17,25 3:28 2 Séniors
3 SCHAUWERS ANTOINE 909 34:26 16,55 3:37 1 Espoirs Garçons
4 DEVEL PHILIPPE 836 34:29 16,52 3:37 1 Vétérans 1
5 FORT ALEXANDRE 921 35:04 16,25 3:41 2 Vétérans 1
6 BOULANGER BRYAN 107 35:09 16,21 3:42 3 Séniors
7 BRASSEUR GREGORY 1042 36:02 15,81 3:47 4 Séniors
8 DE NAEYER JOACHIM 111 36:20 15,69 3:49 1 Vétérans 2
9 GENREITH JEREMY 953 36:28 15,63 3:50 5 Séniors
10 RENSONNET DENIS 966 36:47 15,49 3:52 3 Vétérans 1
11 DEBROUX SEBASTIEN 144 37:08 15,34 3:54 4 Vétérans 1
12 JAMAR YANN 908 37:14 15,31 3:55 6 Séniors
13 HENRARD GUILLAUME 322 37:17 15,29 3:55 7 Séniors
14 HOGGE GAETAN 349 37:18 15,27 3:55 8 Séniors
15 LUXEN ANTOINE 955 37:31 15,19 3:56 9 Séniors
16 LARDINOIS SIMON 891 37:37 15,15 3:57 10 Séniors
17 BUSCH TIMOTHY 910 37:49 15,07 3:58 2 Espoirs Garçons
18 PIRLET SIMON 947 37:58 15,01 3:59 11 Séniors
19 HENRARD CEDRIC 877 38:13 14,91 4:01 12 Séniors
20 TIGNÉE VINCENT 887 38:24 14,84 4:02 13 Séniors
21 BROCHARD VINCENT 473 38:40 14,74 4:04 14 Séniors
22 BASTIN ROBERT 58 38:42 14,73 4:04 2 Vétérans 2
23 MOREAU BERNARD 925 38:49 14,68 4:05 3 Vétérans 2
24 AGNOLI PIERRE 40 38:51 14,67 4:05 15 Séniors
25 BERGENHUIZEN EDDY 74 39:03 14,59 4:06 4 Vétérans 2
26 DERU FABIAN 233 39:07 14,57 4:07 5 Vétérans 1
27 VANHULST BENOIT 662 39:13 14,53 4:07 16 Séniors
28 ANDRES GABY 2 39:27 14,45 4:09 1 Ainées 2
29 WEUSTEN CEDRIC 444 39:38 14,38 4:10 17 Séniors
30 DROUGUET JEREMY 982 39:41 14,36 4:10 18 Séniors
31 SIEBENBOUR MICHEL 629 39:54 14,28 4:12 5 Vétérans 2
32 CHOUIBA MOHAMED 153 40:01 14,24 4:12 6 Vétérans 2
33 FILOT MAXIME 1005 40:09 14,19 4:13 19 Séniors
34 DELHEZ FLORENTIN 212 40:13 14,17 4:14 20 Séniors
35 PARMENTIER NICOLAS 931 40:22 14,12 4:15 21 Séniors
36 BAGUETTE DENIS 940 40:28 14,09 4:15 22 Séniors
37 TASSET ROMAIN 990 40:30 14,07 4:15 3 Espoirs Garçons
38 FISCHER RAPHAEL 292 40:39 14,02 4:16 23 Séniors
39 COLIN JEROME 830 40:43 13,99 4:17 24 Séniors
40 NOEL JULIEN 942 40:47 13,97 4:17 25 Séniors
41 REGNIER LUCAS 926 40:48 13,97 4:17 26 Séniors
42 FLAMAND MICHAEL 257 40:52 13,94 4:18 27 Séniors
43 KROONEN BORIS 970 40:54 13,93 4:18 28 Séniors
44 NADENOEN OLIVIER 487 40:56 13,92 4:18 6 Vétérans 1
45 GENICOT ROMAIN 956 41:05 13,87 4:19 29 Séniors
46 NAHON CHRISTIAN 904 41:13 13,82 4:20 7 Vétérans 1
47 GENREITH GREGORY 301 41:15 13,81 4:20 30 Séniors
48 DORTU BASTIAN 173 41:23 13,77 4:21 31 Séniors
49 FORS KEVIN 972 41:24 13,76 4:21 32 Séniors
50 VILZ ROBERT 453 41:28 13,74 4:21 1 Vétérans 3
51 FONTAINE SERGE 291 41:37 13,69 4:22 8 Vétérans 1
52 DEBROUX GERMAIN 115 41:42 13,67 4:23 4 Espoirs Garçons
53 ROUSSEAU ANTOINE 987 41:43 13,66 4:23 33 Séniors
54 FOGUENNE ALAIN 288 41:44 13,66 4:23 9 Vétérans 1
55 DERU RAPHAEL 862 41:47 13,64 4:23 10 Vétérans 1
56 TASSET JOFFREY 989 41:49 13,63 4:24 34 Séniors
57 CHRISTOPHE CLONEN 451 41:50 13,62 4:24 35 Séniors
58 GEIEBENNE OLIVIER 1004 41:53 13,60 4:24 36 Séniors
59 GHELANDRE MICKAEL 906 41:55 13,60 4:24 37 Séniors
60 TASAGKAS CASSANDRA 878 41:56 13,59 4:24 1 Dames
61 GOMZE MICHEL 5 41:57 13,58 4:25 7 Vétérans 2
62 JANDRAIN FRANCOIS 381 41:58 13,58 4:25 11 Vétérans 1
63 JACOBY ANAIK 1044 42:10 13,51 4:26 38 Séniors
64 SOKAY THOMAS 894 42:12 13,50 4:26 39 Séniors
65 PIETTE OLIVIER 868 42:28 13,42 4:28 12 Vétérans 1
66 EL-BALDI SAID 258 42:36 13,38 4:29 13 Vétérans 1
67 DUESBERG MIKE 242 42:37 13,37 4:29 40 Séniors
68 BORN BENJAMIN 879 42:38 13,37 4:29 41 Séniors
69 DUMEZ JEROME 146 42:42 13,35 4:29 42 Séniors
70 SOMJA VICTOR 527 42:43 13,34 4:29 2 Vétérans 3
71 COMPERE MICHEL 832 42:46 13,33 4:30 43 Séniors
72 COLLETTE RENAUD 957 42:49 13,31 4:30 44 Séniors
73 SCHOENMAKERS BENOIT 585 42:52 13,29 4:30 8 Vétérans 2
74 MATHIEU BERNARD 938 42:56 13,28 4:31 9 Vétérans 2
75 DELOYER LAURENT 125 42:58 13,26 4:31 14 Vétérans 1
76 LESPIRE GARY 974 42:59 13,26 4:31 45 Séniors
77 DOURCY QUENTIN 961 43:04 13,24 4:32 46 Séniors
78 NICOLAYE NATHAN 927 43:06 13,22 4:32 5 Espoirs Garçons
79 STAS CHRISTIAN 594 43:07 13,22 4:32 10 Vétérans 2
80 VANDEWEYER FLORIAN 922 43:07 13,21 4:32 47 Séniors
81 DORTU AXEL 932 43:16 13,17 4:33 48 Séniors
82 VAN LAAR MICHEL 414 43:22 13,14 4:33 11 Vétérans 2
83 HOCK MICHAEL 468 43:23 13,14 4:34 49 Séniors
84 PIRLOT BERNARD 541 43:25 13,13 4:34 50 Séniors
85 KUZEV EMRE 988 43:26 13,12 4:34 6 Espoirs Garçons
86 LEGRAND CHRISTOPHE 204 43:27 13,11 4:34 51 Séniors
87 DESSAUCY QUENTIN 992 43:31 13,10 4:34 52 Séniors
88 KALAC ALEN 853 43:33 13,09 4:35 53 Séniors
89 CORTEIL MATIS 883 43:35 13,08 4:35 7 Espoirs Garçons
90 DERU TOM 964 43:42 13,04 4:36 8 Espoirs Garçons
91 MASSIN JEAN PHILIPPE 913 43:43 13,04 4:36 54 Séniors
92 FASSIN JEFF 277 43:45 13,02 4:36 55 Séniors
93 HANSEZ ANNE 175 43:48 13,01 4:36 2 Dames
94 RASSART MARC 834 43:50 13,00 4:36 12 Vétérans 2
95 BODESON AUGUSTIN 869 43:54 12,98 4:37 56 Séniors
96 XHONNEUX OLIVER 318 43:55 12,98 4:37 15 Vétérans 1
97 MOMMER PIERRE 846 44:02 12,94 4:38 57 Séniors
98 TSAGKAS LORTS 848 44:03 12,94 4:38 9 Espoirs Garçons
99 DERU LUCAS 854 44:04 12,93 4:38 10 Espoirs Garçons
100 SICIM MUSTAFA 626 44:05 12,93 4:38 16 Vétérans 1
101 LEJEUNE FRANCOIS 911 44:06 12,92 4:38 58 Séniors
102 HANSEZ SEBASTIEN 239 44:08 12,92 4:38 59 Séniors
103 NYSSEN PIERRE 378 44:17 12,87 4:39 13 Vétérans 2
104 MALMENDIER GUILLAUME 867 44:22 12,85 4:40 60 Séniors
105 DELBUSHAYE ETHAN 865 44:22 12,85 4:40 11 Espoirs Garçons
106 DEBROUX WALTER 948 44:25 12,83 4:40 12 Espoirs Garçons
107 SCHNACKERS GUILLAUME 973 44:37 12,77 4:41 61 Séniors
108 AGUS PAOLO 41 44:38 12,77 4:41 17 Vétérans 1
109 NAWAY LUDOVIC 824 44:47 12,73 4:42 62 Séniors
110 THONNARD SEVERINE 651 45:01 12,66 4:44 1 Ainées 1
111 ROSA HUGUES 565 45:01 12,66 4:44 18 Vétérans 1
112 CUPERS PHILIPPE 159 45:10 12,62 4:45 14 Vétérans 2
113 LOUVIAUX CINDY 464 45:18 12,58 4:46 2 Ainées 1
114 LECLUSE HERVE 884 45:26 12,54 4:47 63 Séniors
115 SCHMETZ OPHÉLIE 880 45:28 12,54 4:47 3 Dames
116 BACCUS OSCAR 893 45:29 12,53 4:47 64 Séniors
117 LODOMEZ GEOFFREY 943 45:32 12,52 4:47 65 Séniors
118 DEMONTY LOIC 892 45:39 12,49 4:48 66 Séniors
119 BURLEON QUENTIN 91 45:54 12,41 4:49 67 Séniors
120 MARECHAL GILLES 849 45:57 12,40 4:50 13 Espoirs Garçons
121 MERTENS BENJAMIN 871 45:59 12,39 4:50 68 Séniors
122 BOUHON UGO 946 46:06 12,36 4:51 69 Séniors
123 BRICTEUX MARIUS 950 46:07 12,36 4:51 70 Séniors
124 ZINZEN AUGUSTIN 827 46:15 12,32 4:52 14 Espoirs Garçons
125 HEUSSCHEN DOMINIQUE 359 46:17 12,31 4:52 15 Vétérans 2
126 JURION CYRIL 842 46:23 12,29 4:53 15 Espoirs Garçons
127 PIERRE FABIAN 534 46:27 12,27 4:53 19 Vétérans 1
128 ROOMANS CHRISTIAN 581 46:34 12,24 4:54 16 Vétérans 2
129 SORET XAVIER 915 46:48 12,18 4:55 71 Séniors
130 RIGA PHILIPPE 573 46:53 12,16 4:56 17 Vétérans 2
131 DUMOULIN PHILIPPE 952 47:01 12,12 4:56 18 Vétérans 2
132 ROUFOSSE PIERROT 905 47:03 12,11 4:57 16 Espoirs Garçons
133 RENSON JEAN LUC 944 47:12 12,08 4:58 19 Vétérans 2
134 DETRY JEAN POL 888 47:16 12,06 4:58 20 Vétérans 1
135 SCHOLZEN JOANNIE 375 47:19 12,04 4:58 4 Dames
136 NAWYN BENJAMIN 16 47:23 12,03 4:59 21 Vétérans 1
137 BIELEN RENAUD 986 47:26 12,01 4:59 72 Séniors
138 ANGENOT JACQUES 971 47:28 12,01 4:59 20 Vétérans 2
139 JACQUINET BERTRAND 958 47:29 12,00 4:59 73 Séniors
140 ALLIANCE JEREMY 850 47:33 11,99 5:00 74 Séniors
141 JASPAR CHRISTIAN 383 47:37 11,97 5:00 3 Vétérans 3
142 DELWAIDE ANNE 209 47:38 11,96 5:00 1 Ainées 3
143 LEMOINE GUILLAUME 984 47:47 11,93 5:01 17 Espoirs Garçons
144 HENRARD HERVE 995 47:50 11,92 5:02 22 Vétérans 1
145 ERNOTTE AUBRY 821 47:54 11,90 5:02 23 Vétérans 1
146 CARABIN PHILIPPE 886 48:05 11,85 5:03 4 Vétérans 3
147 FOGUENNE LUC 968 48:05 11,85 5:03 21 Vétérans 2
148 LUXEN BENOÎT 949 48:07 11,84 5:03 22 Vétérans 2
149 SACRE GREGORY 1041 48:09 11,84 5:04 75 Séniors
150 DEFENDI SARA 924 48:17 11,80 5:05 3 Ainées 1
151 BOLSSENS CHRISTOPHE 467 48:28 11,76 5:06 24 Vétérans 1
152 TIMMERMANN ALEXANDRE 1 48:28 11,76 5:06 76 Séniors
153 FETTWEIS GAELLE 280 48:40 11,71 5:07 5 Dames
154 MAURAGE RAPHAELLE 490 48:44 11,69 5:07 4 Ainées 1
155 HABETS LEON 978 48:46 11,69 5:08 77 Séniors
156 COLIN JEAN-LOUIS 169 48:49 11,67 5:08 5 Vétérans 3
157 MARECHAL MAXENCE 856 48:52 11,66 5:08 18 Espoirs Garçons
158 FOGUENNE MARIE-FRANCE 261 48:54 11,65 5:08 1 Espoirs Filles
159 THISSEN JORDAN 652 48:59 11,64 5:09 78 Séniors
160 LECLERCQ MANU 859 49:02 11,62 5:09 25 Vétérans 1
161 CHEBIL RAMI 139 49:11 11,59 5:10 26 Vétérans 1
162 GILLESSEN PERRINE 935 49:13 11,58 5:10 2 Espoirs Filles
163 DELHEZ JEAN-FRANCOIS 155 49:15 11,57 5:11 79 Séniors
164 NAHON SYLVIE 516 49:16 11,57 5:11 2 Ainées 2
165 COLLIN JEROME 889 49:17 11,56 5:11 27 Vétérans 1
166 HORWARD FRANÇOISE 934 49:21 11,55 5:11 5 Ainées 1
167 TASQUIN YANNICK 298 49:22 11,54 5:11 80 Séniors
168 GABRIEL TITO 985 49:24 11,54 5:12 81 Séniors
169 BOMBOIRE JULIEN 837 49:29 11,52 5:12 19 Espoirs Garçons
170 RENARD JEREMY 852 49:31 11,51 5:12 82 Séniors
171 LECLUSE NATHALIE 860 49:35 11,49 5:13 6 Ainées 1
172 MARLET MALORIE 831 49:35 11,49 5:13 6 Dames
173 GHARBI BRAHIM 907 49:54 11,42 5:15 83 Séniors
174 DEVOS SERGE 899 49:54 11,42 5:15 23 Vétérans 2
175 DEFRANCE ANNE 965 49:56 11,41 5:15 7 Ainées 1
176 TELLER ALICIA 646 50:05 11,38 5:16 7 Dames
177 LARBUISSON JESSICA 376 50:07 11,37 5:16 8 Dames
178 SCUROLE CATHERINE 902 50:19 11,33 5:17 8 Ainées 1
179 BRONCKART JUSTINE 75 50:32 11,28 5:19 9 Dames
180 DEMONCEAU HENRI 433 50:44 11,23 5:20 6 Vétérans 3
181 HENTIENS AURELIE 901 51:02 11,17 5:22 9 Ainées 1
182 JANSEN FANNY 967 51:03 11,17 5:22 10 Dames
183 HILDERSON LUC 611 51:06 11,15 5:22 7 Vétérans 3
184 MARECHAL BERNADETTE 438 51:16 11,12 5:23 2 Ainées 3
185 COBBEN SYLVAIN 113 51:16 11,12 5:23 84 Séniors
186 MONAMI SYLVIANE 999 51:20 11,10 5:24 10 Ainées 1
187 MENNICKEN ROGER 494 51:22 11,10 5:24 24 Vétérans 2
188 COLLETTE DELPHINE 929 51:25 11,08 5:24 11 Ainées 1
189 MARCHAL AMAURY 477 51:35 11,05 5:25 85 Séniors
190 COUNET PETER 923 51:37 11,04 5:26 28 Vétérans 1
191 DHEUR CHRISTOPHE 136 51:52 10,99 5:27 86 Séniors
192 JORIS FRANCOISE 912 51:52 10,99 5:27 3 Ainées 2
193 BAQUET BENJAMIN 945 52:20 10,89 5:30 87 Séniors
194 LAMBERT HENRI 533 52:47 10,80 5:33 29 Vétérans 1
195 VOSS JEAN-LOUIS 673 52:58 10,76 5:34 8 Vétérans 3
196 ANDRIEN TONY 51 52:58 10,76 5:34 25 Vétérans 2
197 ROGGEMANS AMANDINE 885 53:00 10,75 5:34 11 Dames
198 BERTHOLET CHRISTOPHE 928 53:01 10,75 5:34 88 Séniors
199 BARTELET JOEL 918 53:05 10,74 5:35 9 Vétérans 3
200 RONDOZ BERTRAND 939 53:11 10,71 5:35 89 Séniors
201 DUYSENS CHRISTOPHE 1037 53:16 10,70 5:36 30 Vétérans 1
202 SPECKS ANTONIN 1043 53:22 10,68 5:37 20 Espoirs Garçons
203 FETTWEIS THIERRY 281 53:24 10,67 5:37 10 Vétérans 3
204 ORBAN SARAH 528 53:26 10,67 5:37 12 Dames
205 BOULANGER CLAIRE-ANAIS 959 53:27 10,66 5:37 13 Dames
206 PENASSE LAURENCE 977 53:28 10,66 5:37 12 Ainées 1
207 DEWALQUE THIERRY 976 53:28 10,66 5:37 31 Vétérans 1
208 BRACH CHRISTOPHE 109 53:31 10,65 5:38 90 Séniors
209 BASTIN ISABELLE 62 54:01 10,55 5:41 4 Ainées 2
210 LINCE GUY 452 54:14 10,51 5:42 11 Vétérans 3
211 DUBLET SERGE 231 54:29 10,46 5:44 12 Vétérans 3
212 DUBOIS CEDRIC 845 54:30 10,46 5:44 91 Séniors
213 VANDENHOVEN BENJAMIN 874 54:39 10,43 5:45 92 Séniors
214 DENOISIEUX CHRISTIAN 229 54:40 10,43 5:45 26 Vétérans 2
215 FOGUENNE SYLVAIN 933 54:42 10,42 5:45 21 Espoirs Garçons
216 JANNE D'OTHEE CORINN 844 54:45 10,41 5:45 13 Ainées 1
217 GAVRAY JULIEN 881 54:45 10,41 5:45 32 Vétérans 1
218 BRAGARD BENOIT 975 54:48 10,40 5:46 27 Vétérans 2
219 ROUFOSSE UGO 34 54:52 10,39 5:46 28 Vétérans 2
220 LEMOINE RENAUD 983 54:58 10,37 5:47 33 Vétérans 1
221 MERCENIER JEAN-LUC 526 55:02 10,36 5:47 34 Vétérans 1
222 SERVILLE CHANTAL 864 55:03 10,35 5:47 14 Ainées 1
223 VERCAMMEN CLEMENT 916 55:07 10,34 5:48 22 Espoirs Garçons
224 VERCAMMEN MICHEL 427 55:07 10,34 5:48 35 Vétérans 1
225 LEMAIRE CHRISTIAN 919 55:10 10,33 5:48 29 Vétérans 2
226 ABAD LAMAS PATRICIA 37 55:13 10,32 5:48 3 Ainées 3
227 SCHAUS CARINE 1039 55:37 10,25 5:51 14 Dames
228 HEUSLICH GEOFFREY 1040 55:37 10,25 5:51 93 Séniors
229 LIÉGEOIS ARNAUD 876 55:43 10,23 5:51 36 Vétérans 1
230 BRICTEUX MICHEL 951 55:55 10,19 5:53 30 Vétérans 2
231 MERTENS THIBAUT 873 55:56 10,19 5:53 23 Espoirs Garçons
232 MERTENS MICHEL 870 56:05 10,16 5:54 37 Vétérans 1
233 JACQUET FANNY 1002 56:06 10,16 5:54 15 Dames
234 DELGADO MICHELINE 165 56:09 10,15 5:54 5 Ainées 2
235 FRANCK XAVIER 994 56:13 10,14 5:55 94 Séniors
236 DELBUSHAYE BRUNO 866 56:35 10,07 5:57 38 Vétérans 1
237 DAHMEN VERONIQUE 996 56:48 10,03 5:58 6 Ainées 2
238 JENNES SANDRINE 954 57:01 10,00 6:00 16 Dames
239 PAROTTE AURORE 917 57:16 9,95 6:01 15 Ainées 1
240 BRAGARD ALEXANDRE 962 57:16 9,95 6:01 95 Séniors
241 JURION THIERRY 855 57:34 9,90 6:03 39 Vétérans 1
242 BERTRANG JULIEN 79 57:36 9,89 6:03 1 Vétérans 4
243 LANSMANS FRANCOISE 200 57:56 9,84 6:05 7 Ainées 2
244 LECLERCQ HUGO 857 57:59 9,83 6:06 24 Espoirs Garçons
245 NIZET VERONIQUE 241 58:17 9,78 6:08 8 Ainées 2
246 SCHILD MARGAUX 1003 58:21 9,77 6:08 17 Dames
247 WALRAFF WALLY 678 58:24 9,76 6:08 31 Vétérans 2
248 SCHREUER ARNAUD 998 58:45 9,70 6:11 96 Séniors
249 FASSOTTE LUDOVIC 997 58:45 9,70 6:11 97 Séniors
250 CASTELLANA FRANCESCO 941 59:01 9,66 6:12 25 Espoirs Garçons
251 BLOEMERS KRISTEL 833 59:05 9,65 6:13 16 Ainées 1
252 MICHEL CAROLINE 829 59:10 9,63 6:13 3 Espoirs Filles
253 THOME DAVID 826 59:32 9,57 6:16 98 Séniors
254 LABEDZ JONATHAN 981 59:40 9,55 6:16 99 Séniors
255 MARTINEZ DAVID 960 1:00:05 9,49 6:19 100 Séniors
256 WEBER YANIS 896 1:00:08 9,48 6:19 26 Espoirs Garçons
257 WEBER MICHAEL 895 1:00:09 9,48 6:19 40 Vétérans 1
258 MARCHAND NOA 823 1:00:12 9,47 6:20 27 Espoirs Garçons
259 MARCHAND OLIVIER 822 1:00:15 9,46 6:20 41 Vétérans 1
260 ALBERT THIBAUT 840 1:00:41 9,39 6:23 28 Espoirs Garçons
261 PORROVECCHIO TIZIANO 841 1:01:21 9,29 6:27 29 Espoirs Garçons
262 FOGUENNE-MILIS ANNE-FRANCOISE 969 1:01:23 9,29 6:27 9 Ainées 2
263 ALBERT ARTHUR 838 1:01:23 9,28 6:27 30 Espoirs Garçons
264 ALBERT STEVE 839 1:01:23 9,28 6:27 42 Vétérans 1
265 VOISIN VÉRONIQUE 1000 1:01:29 9,27 6:28 17 Ainées 1
266 HERCOT JEAN 900 1:03:37 8,96 6:41 32 Vétérans 2
267 PEETERS SOPHIE 980 1:03:54 8,92 6:43 18 Ainées 1
268 DELEDICQUE JEAN LUC 979 1:03:54 8,92 6:43 33 Vétérans 2
269 JENNES PATRICK 355 1:04:34 8,83 6:47 13 Vétérans 3
270 BURHENNE DELPHINE 937 1:04:55 8,78 6:50 18 Dames
271 BELMESSIERI SEVERINE 936 1:04:55 8,78 6:50 19 Ainées 1
272 LEMOINE ALINE 991 1:05:55 8,65 6:56 20 Ainées 1
273 CORTEIL ANAIS 897 1:06:57 8,51 7:02 4 Espoirs Filles
274 DEFAWES HUGO 898 1:06:57 8,51 7:02 31 Espoirs Garçons
275 SPABECK NOEMIE 1038 1:07:10 8,49 7:04 19 Dames
276 YANS BARBARA 920 1:08:37 8,31 7:13 21 Ainées 1
277 MUYTERS SERGE 515 1:09:47 8,17 7:20 2 Vétérans 4
278 DESERT LUC 1001 1:11:26 7,98 7:31 34 Vétérans 2
279 DELAIRESSE GILBERT 930 1:12:40 7,84 7:38 3 Vétérans 4
280 MOINEAU VICTOR 502 1:21:44 6,97 8:36 4 Vétérans 4